Погода в Тёсово-Нетыльском

Россия / Новгородская область     58°56′29″N   31°04′07″E
темп.,
°C
ветер,
м/с
пор.,
м/с
влажн.,
%
обл.,
%
осадки,
мм/ч
давл.,
гПа
погр.,
м
8 марта, пн
пн800:00−7ссз51185100 0.2 996987
03:00−8с51187100 0.3 999767
06:00−10с51186100 0.1 1003745
09:00−10с51185100 0.1 1006655
12:00−9с597696 0.0 1009685
15:00−7с586962 0.0 1012908
18:00−9с378131 0.0 1014704
21:00−12с289433 0.0 1016344
9 марта, вт
вт900:00−14ссз259727 0.0 1017166
03:00−15с249751 0.0 1018145
06:00−16ссв23960 0.0 1019103
09:00−16св12880 0.0 1020225
12:00−12всв226965 0.0 1020478
15:00−11всв236383 0.0 1021538
18:00−12в3571100 0.0 1020548
21:00−14в4884100 0.0 1022387
10 марта, ср
ср1000:00−16в498929 0.0 1024344
03:00−17в388915 0.0 1025297
06:00−18всв37870 0.0 1026256
09:00−17в35740 0.0 1028219
12:00−12всв356357 0.0 1029325
15:00−9в355647 0.0 1029544
18:00−10всв247316 0.0 1029130
21:00−14в238619 0.0 103060
11 марта, чт
чт1100:00−14вюв238839 0.0 103063
03:00−15вюв229125 0.0 103059
06:00−15юв26900 0.0 1028150
09:00−13ююв48780 0.0 1028293
12:00−9ююв510560 0.0 1025659
15:00−7ююв611530 0.0 1023782
18:00−8ююв5126737 0.0 1020741
21:00−8ююв6148962 0.0 1017636
12 марта, пт
пт1200:00−8ююв61488100 0.1 1015635
03:00−9ююв71588100 0.1 1011731
06:00−7ююв81684100 0.1 1007906
09:00−6ююв91789100 0.6 10041143
12:00−4ююв91689100 1.3 10021161
15:00−3ю81489100 2.4 1000979
18:00−3ю61393100 0.9 999752
21:00−1ю51097100 1.6 998413